When you browse on this site, cookies collect data to enhance your experience and personalize the content and advertising you see.
Visit our Privacy Policy to learn more. By continuing to use the site, you agree to this use of cookies and data.
  • en Suisse
  • Liste des pays
  • À 7 jours
  • Température de l'eau
  • Carte satellitaire
  • Carte météo
  • Widgets météo
  • user-avatar
    Se connecter

    Météo par heure à Eghegnadzor

    Ce jour, 26 Avril, Vendredi

    Heure Température Précipitation Vent Pression Humidité
    00:00 +4°C° 0 mm 2 m/s 656 mmHg 66%
    01:00 +3°C° 0 mm 2 m/s 656 mmHg 66%
    02:00 +3°C° 0 mm 2 m/s 656 mmHg 66%
    03:00 +3°C° 0 mm 2 m/s 656 mmHg 67%
    04:00 +3°C° 0 mm 2 m/s 656 mmHg 65%
    05:00 +3°C° 0 mm 2 m/s 656 mmHg 64%
    06:00 +3°C° 0 mm 2 m/s 656 mmHg 62%
    07:00 +5°C° 0 mm 2 m/s 656 mmHg 58%
    08:00 +8°C° 0 mm 1 m/s 657 mmHg 54%
    09:00 +10°C° 0 mm 1 m/s 657 mmHg 50%
    10:00 +10°C° 0 mm 1 m/s 656 mmHg 51%
    11:00 +11°C° 0 mm 1 m/s 656 mmHg 51%
    12:00 +12°C° 0 mm 1 m/s 656 mmHg 52%
    13:00 +12°C° 0 mm 1 m/s 656 mmHg 51%
    14:00 +13°C° 0 mm 1 m/s 656 mmHg 51%
    15:00 +13°C° 0 mm 1 m/s 655 mmHg 50%
    16:00 +13°C° 0 mm 1 m/s 655 mmHg 50%
    17:00 +12°C° 0 mm 1 m/s 655 mmHg 50%
    18:00 +12°C° 0 mm 1 m/s 655 mmHg 49%
    19:00 +10°C° 0 mm 1 m/s 655 mmHg 52%
    20:00 +9°C° 0 mm 1 m/s 655 mmHg 56%
    21:00 +7°C° 0 mm 2 m/s 655 mmHg 59%
    22:00 +6°C° 0 mm 2 m/s 655 mmHg 60%
    23:00 +6°C° 0 mm 2 m/s 655 mmHg 61%

    Demain, 27 Avril, Samedi

    Heure Température Précipitation Vent Pression Humidité
    00:00 +5°C° 0 mm 2 m/s 655 mmHg 62%
    01:00 +5°C° 0 mm 2 m/s 655 mmHg 62%
    02:00 +5°C° 0 mm 2 m/s 655 mmHg 62%
    03:00 +4°C° 0 mm 2 m/s 654 mmHg 63%
    04:00 +5°C° 0 mm 1 m/s 655 mmHg 62%
    05:00 +6°C° 0 mm 1 m/s 655 mmHg 61%
    06:00 +6°C° 0 mm 1 m/s 655 mmHg 60%
    07:00 +8°C° 0 mm 1 m/s 655 mmHg 58%
    08:00 +10°C° 0 mm 1 m/s 655 mmHg 56%
    09:00 +11°C° 0 mm 1 m/s 655 mmHg 54%
    10:00 +12°C° 0 mm 1 m/s 655 mmHg 53%
    11:00 +13°C° 0 mm 2 m/s 655 mmHg 52%
    12:00 +14°C° 0 mm 2 m/s 655 mmHg 50%
    13:00 +14°C° 0 mm 2 m/s 654 mmHg 49%
    14:00 +14°C° 0 mm 2 m/s 654 mmHg 47%
    15:00 +15°C° 0 mm 2 m/s 654 mmHg 45%
    16:00 +14°C° 0 mm 2 m/s 654 mmHg 43%
    17:00 +14°C° 0 mm 1 m/s 653 mmHg 42%
    18:00 +13°C° 0 mm 1 m/s 653 mmHg 40%
    19:00 +12°C° 0 mm 1 m/s 653 mmHg 42%
    20:00 +10°C° 0 mm 1 m/s 653 mmHg 43%
    21:00 +9°C° 0 mm 1 m/s 653 mmHg 44%
    22:00 +9°C° 0 mm 1 m/s 653 mmHg 44%
    23:00 +8°C° 0 mm 1 m/s 653 mmHg 45%

    Après-demain, 28 Avril, Dimanche

    Heure Température Précipitation Vent Pression Humidité
    00:00 +7°C° 0 mm 2 m/s 653 mmHg 45%
    01:00 +7°C° 0 mm 2 m/s 652 mmHg 46%
    02:00 +7°C° 0 mm 1 m/s 652 mmHg 48%
    03:00 +7°C° 0 mm 1 m/s 652 mmHg 49%
    04:00 +7°C° 0 mm 1 m/s 652 mmHg 51%
    05:00 +7°C° 0 mm 2 m/s 652 mmHg 52%
    06:00 +7°C° 0 mm 2 m/s 652 mmHg 54%
    07:00 +9°C° 0 mm 2 m/s 652 mmHg 51%
    08:00 +10°C° 0 mm 2 m/s 652 mmHg 48%
    09:00 +13°C° 0 mm 2 m/s 652 mmHg 44%
    10:00 +14°C° 0 mm 2 m/s 652 mmHg 45%
    11:00 +13°C° 0 mm 3 m/s 652 mmHg 46%
    12:00 +14°C° 0 mm 3 m/s 652 mmHg 46%
    13:00 +14°C° 0 mm 3 m/s 652 mmHg 47%
    14:00 +16°C° 0 mm 3 m/s 651 mmHg 47%
    15:00 +16°C° 0 mm 3 m/s 651 mmHg 48%
    16:00 +14°C° 0 mm 3 m/s 651 mmHg 49%
    17:00 +15°C° 0 mm 2 m/s 651 mmHg 50%
    18:00 +14°C° 0 mm 2 m/s 651 mmHg 50%
    19:00 +13°C° 0 mm 1 m/s 651 mmHg 54%
    20:00 +12°C° 0 mm 1 m/s 651 mmHg 58%
    21:00 +10°C° 0 mm 1 m/s 651 mmHg 62%
    22:00 +10°C° 0 mm 1 m/s 651 mmHg 63%
    23:00 +10°C° 0 mm 1 m/s 651 mmHg 64%

    29 Avril, Lundi

    Heure Température Précipitation Vent Pression Humidité
    00:00 +9°C° 0 mm 1 m/s 651 mmHg 65%
    01:00 +9°C° 0 mm 1 m/s 651 mmHg 66%
    02:00 +9°C° 0 mm 1 m/s 651 mmHg 67%
    03:00 +8°C° 0 mm 1 m/s 651 mmHg 68%
    04:00 +9°C° 0 mm 1 m/s 651 mmHg 67%
    05:00 +9°C° 0 mm 1 m/s 651 mmHg 66%
    06:00 +9°C° 0 mm 1 m/s 651 mmHg 65%
    07:00 +10°C° 0 mm 2 m/s 652 mmHg 63%
    08:00 +13°C° 0 mm 2 m/s 652 mmHg 61%
    09:00 +14°C° 0 mm 2 m/s 652 mmHg 59%
    10:00 +14°C° 0 mm 3 m/s 652 mmHg 57%
    11:00 +16°C° 0 mm 3 m/s 652 mmHg 56%
    12:00 +17°C° 0 mm 3 m/s 652 mmHg 54%
    13:00 +17°C° 0.2 mm 3 m/s 652 mmHg 52%
    14:00 +18°C° 0.2 mm 3 m/s 652 mmHg 50%
    15:00 +18°C° 0.2 mm 3 m/s 651 mmHg 49%
    16:00 +17°C° 0.2 mm 3 m/s 651 mmHg 50%
    17:00 +16°C° 0.2 mm 2 m/s 651 mmHg 51%
    18:00 +16°C° 0.2 mm 1 m/s 651 mmHg 53%
    19:00 +14°C° 0 mm 1 m/s 651 mmHg 56%
    20:00 +13°C° 0 mm 1 m/s 651 mmHg 59%
    21:00 +12°C° 0 mm 1 m/s 651 mmHg 61%
    22:00 +12°C° 0 mm 1 m/s 651 mmHg 62%
    23:00 +11°C° 0 mm 1 m/s 651 mmHg 64%

    30 Avril, Mardi

    Heure Température Précipitation Vent Pression Humidité
    00:00 +10°C° 0 mm 2 m/s 651 mmHg 65%
    01:00 +10°C° 0 mm 2 m/s 651 mmHg 66%
    02:00 +10°C° 0 mm 2 m/s 651 mmHg 67%
    03:00 +10°C° 0 mm 2 m/s 651 mmHg 68%
    04:00 +10°C° 0 mm 2 m/s 651 mmHg 69%
    05:00 +10°C° 0 mm 2 m/s 651 mmHg 69%
    06:00 +10°C° 0 mm 2 m/s 651 mmHg 70%
    07:00 +12°C° 0 mm 2 m/s 652 mmHg 65%
    08:00 +14°C° 0 mm 2 m/s 652 mmHg 61%
    09:00 +14°C° 0 mm 3 m/s 652 mmHg 57%
    10:00 +16°C° 0.1 mm 3 m/s 652 mmHg 55%
    11:00 +17°C° 0.1 mm 4 m/s 652 mmHg 52%
    12:00 +18°C° 0.1 mm 4 m/s 652 mmHg 50%
    13:00 +18°C° 0.2 mm 4 m/s 652 mmHg 47%
    14:00 +19°C° 0.2 mm 5 m/s 652 mmHg 45%
    15:00 +19°C° 0.2 mm 5 m/s 652 mmHg 43%
    16:00 +19°C° 0.2 mm 4 m/s 652 mmHg 44%
    17:00 +18°C° 0.2 mm 2 m/s 652 mmHg 46%
    18:00 +18°C° 0.2 mm 1 m/s 651 mmHg 48%
    19:00 +16°C° 0.2 mm 1 m/s 651 mmHg 51%
    20:00 +15°C° 0.2 mm 1 m/s 652 mmHg 54%
    21:00 +13°C° 0.2 mm 1 m/s 652 mmHg 58%
    22:00 +13°C° 0 mm 1 m/s 651 mmHg 59%
    23:00 +12°C° 0 mm 1 m/s 651 mmHg 60%

    1 Mai, Mercredi

    Heure Température Précipitation Vent Pression Humidité
    00:00 +12°C° 0 mm 1 m/s 651 mmHg 61%
    01:00 +10°C° 0 mm 2 m/s 651 mmHg 62%
    02:00 +10°C° 0 mm 2 m/s 651 mmHg 63%
    03:00 +10°C° 0 mm 2 m/s 651 mmHg 63%
    04:00 +10°C° 0 mm 2 m/s 651 mmHg 63%
    05:00 +10°C° 0 mm 2 m/s 651 mmHg 63%
    06:00 +12°C° 0 mm 2 m/s 651 mmHg 63%
    07:00 +13°C° 0 mm 2 m/s 651 mmHg 58%
    08:00 +15°C° 0 mm 2 m/s 652 mmHg 53%
    09:00 +17°C° 0 mm 2 m/s 652 mmHg 47%
    10:00 +18°C° 0 mm 3 m/s 652 mmHg 44%
    11:00 +19°C° 0 mm 3 m/s 651 mmHg 42%
    12:00 +20°C° 0 mm 3 m/s 651 mmHg 39%
    13:00 +20°C° 0 mm 3 m/s 651 mmHg 38%
    14:00 +20°C° 0 mm 3 m/s 651 mmHg 38%
    15:00 +21°C° 0 mm 3 m/s 650 mmHg 37%
    16:00 +20°C° 0.2 mm 2 m/s 650 mmHg 40%
    17:00 +19°C° 0.2 mm 2 m/s 650 mmHg 44%
    18:00 +19°C° 0.2 mm 1 m/s 650 mmHg 47%
    19:00 +18°C° 0 mm 1 m/s 650 mmHg 48%
    20:00 +16°C° 0 mm 1 m/s 650 mmHg 50%
    21:00 +15°C° 0 mm 1 m/s 650 mmHg 51%
    22:00 +14°C° 0 mm 2 m/s 650 mmHg 53%
    23:00 +14°C° 0 mm 2 m/s 650 mmHg 54%
    Voir plus